TimePDT,TemperatureF,Dew PointF,Humidity,Sea Level PressureIn,VisibilityMPH,Wind Direction,Wind SpeedMPH,Gust SpeedMPH,PrecipitationIn,Events,Conditions,WindDirDegrees,DateUTC
12:22 AM,55.4,55.4,100,29.61,1.8,Calm,Calm,-,0.00,Rain,Light Rain,0,2013-06-24 07:22:00
12:35 AM,55.4,53.6,94,29.61,0.8,Calm,Calm,-,0.00,Rain,Light Rain,0,2013-06-24 07:35:00
12:43 AM,55.4,55.4,100,29.61,0.8,Calm,Calm,-,0.00,Rain,Light Rain,0,2013-06-24 07:43:00
12:53 AM,55.9,55.0,97,29.60,0.5,Calm,Calm,-,0.00,Fog,Fog,0,2013-06-24 07:53:00
1:05 AM,55.4,55.4,100,29.60,1.2,Calm,Calm,-,N/A,,Overcast,0,2013-06-24 08:05:00
1:15 AM,55.4,55.4,100,29.60,0.5,Calm,Calm,-,0.00,Fog-Rain,Light Rain,0,2013-06-24 08:15:00
1:22 AM,55.4,55.4,100,29.60,0.5,Calm,Calm,-,0.00,Fog,Fog,0,2013-06-24 08:22:00
1:31 AM,55.4,55.4,100,29.60,0.5,Calm,Calm,-,0.00,Fog,Fog,0,2013-06-24 08:31:00
1:53 AM,55.9,55.9,100,29.60,0.2,Calm,Calm,-,0.00,Fog,Fog,0,2013-06-24 08:53:00
2:39 AM,57.2,55.4,94,29.58,1.5,Calm,Calm,-,N/A,,Overcast,0,2013-06-24 09:39:00
2:53 AM,57.0,55.9,96,29.58,1.2,Calm,Calm,-,N/A,,Overcast,0,2013-06-24 09:53:00
3:07 AM,57.2,55.4,94,29.58,2.5,Calm,Calm,-,N/A,,Overcast,0,2013-06-24 10:07:00
3:24 AM,57.2,57.2,100,29.57,3.0,Calm,Calm,-,0.00,Rain,Light Rain,0,2013-06-24 10:24:00
3:40 AM,57.2,57.2,100,29.57,3.0,Calm,Calm,-,0.00,,Overcast,0,2013-06-24 10:40:00
3:50 AM,57.2,57.2,100,29.57,1.5,Calm,Calm,-,0.00,,Overcast,0,2013-06-24 10:50:00
3:53 AM,57.0,55.9,96,29.57,0.8,Calm,Calm,-,0.00,,Overcast,0,2013-06-24 10:53:00
4:01 AM,57.2,55.4,94,29.57,0.8,Calm,Calm,-,N/A,,Overcast,0,2013-06-24 11:01:00
4:11 AM,57.2,57.2,100,29.57,1.2,Calm,Calm,-,0.00,Rain,Light Rain,0,2013-06-24 11:11:00
4:17 AM,57.2,57.2,100,29.57,0.8,Calm,Calm,-,0.00,Rain,Light Rain,0,2013-06-24 11:17:00
4:24 AM,55.4,53.6,94,29.57,0.5,SE,3.5,-,0.00,Fog-Rain,Light Rain,130,2013-06-24 11:24:00
4:53 AM,54.0,54.0,100,29.57,0.5,Calm,Calm,-,0.00,Fog,Fog,0,2013-06-24 11:53:00
5:53 AM,54.0,54.0,100,29.57,0.2,Calm,Calm,-,N/A,Fog,Fog,0,2013-06-24 12:53:00
6:25 AM,55.4,55.4,100,29.57,1.0,Calm,Calm,-,N/A,,Overcast,0,2013-06-24 13:25:00
6:49 AM,55.4,55.4,100,29.58,0.8,Calm,Calm,-,0.00,Rain,Light Rain,0,2013-06-24 13:49:00
6:53 AM,55.9,55.0,97,29.58,0.8,Calm,Calm,-,0.00,Rain,Light Rain,0,2013-06-24 13:53:00
7:01 AM,55.4,55.4,100,29.58,1.5,SSE,4.6,-,0.00,,Overcast,160,2013-06-24 14:01:00
7:09 AM,55.4,55.4,100,29.58,3.0,SSE,4.6,-,0.00,,Overcast,160,2013-06-24 14:09:00
7:15 AM,55.4,55.4,100,29.59,1.8,Calm,Calm,-,0.00,,Overcast,0,2013-06-24 14:15:00
7:25 AM,57.2,55.4,94,29.59,0.5,SSW,4.6,-,0.00,Fog,Fog,200,2013-06-24 14:25:00
7:45 AM,55.4,53.6,94,29.59,2.0,Calm,Calm,-,0.00,,Overcast,0,2013-06-24 14:45:00
7:53 AM,55.0,55.0,100,29.59,6.0,Calm,Calm,-,0.00,,Overcast,0,2013-06-24 14:53:00
8:00 AM,55.4,55.4,100,29.59,5.0,SE,3.5,-,N/A,,Overcast,130,2013-06-24 15:00:00
8:05 AM,55.4,53.6,94,29.59,1.2,SE,3.5,-,N/A,,Overcast,130,2013-06-24 15:05:00
8:13 AM,55.4,55.4,100,29.59,0.2,ESE,3.5,-,N/A,Fog,Fog,120,2013-06-24 15:13:00
8:25 AM,53.6,53.6,100,29.59,0.2,ESE,3.5,-,N/A,Fog,Fog,110,2013-06-24 15:25:00
8:46 AM,53.6,53.6,100,29.60,1.0,Calm,Calm,-,N/A,,Overcast,0,2013-06-24 15:46:00
8:53 AM,55.0,55.0,100,29.60,2.5,Calm,Calm,-,N/A,,Overcast,0,2013-06-24 15:53:00
9:01 AM,55.4,55.4,100,29.60,4.0,Calm,Calm,-,N/A,,Overcast,0,2013-06-24 16:01:00
9:53 AM,54.0,53.1,97,29.62,6.0,SE,8.1,-,0.00,,Overcast,130,2013-06-24 16:53:00
10:18 AM,53.6,51.8,94,29.64,1.5,Variable,4.6,-,0.09,Rain,Heavy Rain,0,2013-06-24 17:18:00
10:31 AM,53.6,51.8,94,29.64,1.2,Variable,3.5,-,0.20,Rain,Rain,0,2013-06-24 17:31:00
10:42 AM,53.6,51.8,94,29.65,2.0,SSE,9.2,-,0.24,Rain,Rain,150,2013-06-24 17:42:00
10:53 AM,53.1,53.1,100,29.65,3.0,SSE,4.6,-,0.25,Rain,Light Rain,160,2013-06-24 17:53:00
11:53 AM,57.9,55.9,93,29.67,10.0,Variable,4.6,-,0.00,,Mostly Cloudy,0,2013-06-24 18:53:00
12:53 PM,57.9,55.0,90,29.68,10.0,ESE,3.5,-,N/A,,Overcast,120,2013-06-24 19:53:00
1:53 PM,59.0,55.9,90,29.68,10.0,Calm,Calm,-,N/A,,Overcast,0,2013-06-24 20:53:00
2:53 PM,63.0,55.9,78,29.69,10.0,East,3.5,-,N/A,,Overcast,100,2013-06-24 21:53:00
3:53 PM,64.0,55.9,75,29.69,10.0,ESE,4.6,-,N/A,,Overcast,110,2013-06-24 22:53:00
4:53 PM,64.0,54.0,70,29.69,10.0,ESE,3.5,-,N/A,,Overcast,120,2013-06-24 23:53:00
5:53 PM,61.0,55.0,81,29.69,10.0,SW,4.6,-,N/A,,Overcast,220,2013-06-25 00:53:00
6:53 PM,59.0,54.0,83,29.69,10.0,SW,3.5,-,N/A,,Overcast,230,2013-06-25 01:53:00
7:53 PM,59.0,55.0,87,29.70,-9999.0,Calm,Calm,-,N/A,,Unknown,0,2013-06-25 02:53:00
8:53 PM,55.0,53.1,93,29.69,10.0,Calm,Calm,-,N/A,,Clear,0,2013-06-25 03:53:00
9:53 PM,54.0,53.1,97,29.70,10.0,Calm,Calm,-,N/A,,Mostly Cloudy,0,2013-06-25 04:53:00
10:53 PM,53.1,52.0,96,29.70,10.0,Calm,Calm,-,N/A,,Mostly Cloudy,0,2013-06-25 05:53:00
11:53 PM,52.0,51.1,97,29.70,10.0,Calm,Calm,-,N/A,,Mostly Cloudy,0,2013-06-25 06:53:00